User: anonymous
Location: Oshawa
(43.9000°N, 78.8670°W)
Time: 08:43:31
(UTC-04:00)
Language:

Explorer 11/Cluster Stage 4 - Orbit

View from above orbital plane
View from above orbital plane
View from above satellite
View from above satellite

Ground track
Ground track

The orbit data is extracted from the following two-line orbital elements,

1 00107U 61013A   14209.98611664  .00000798  00000-0  87813-4 0   981
2 00107 028.7925 067.9012 0562568 258.3436 247.9439 14.05037073662452
Epoch (UTC): 28 July 2014 23:40:00
Eccentricity: 0.0562568
inclination: 28.7925°
perigee height: 468 km
apogee height: 1284 km
right ascension of ascending node: 67.9012°
argument of perigee: 258.3436°
revolutions per day: 14.05037073
mean anomaly at epoch: 247.9439°
orbit number at epoch: 66245

The dashed part of the orbit path shows where the satellite is in the earth's shadow,  

DLR